Home > Weather > Uluru > Past weeks

Flag for Australia Past Weather in Uluru, Northern Territory, Australia — Yesterday and Last 2 Weeks

Now
63 °F

Sunny.


Feels Like: 63 °F
Forecast: 47 / 66 °F
Wind: 3 mph from Southeast

Location: Ayers Rock

Current Time: May 27, 2016 at 12:00:14 PM

Latest Report: May 27, 2016 at 10:30 AM


Visibility: N/A

Pressure: 30.18 "Hg (27.28 "Hg at 857m altitude)

Humidity: 42%

Dew Point: 39 °F

Location of UluruLocation

Past Weather in Uluru — Graph

°F

Uluru Temperature Yesterday

Maximum temperature yesterday: 86 °F (at 2:30 PM)
Minimum temperature yesterday: 57 °F (at 5:30 AM)
Average temperature yesterday: 72 °F

High & Low Weather Summary for the Past Weeks

 TemperatureHumidityPressure
High86 °F (May 16, 3:30 PM)94% (May 26, 6:30 AM)30.27 "Hg (May 26, 6:30 AM)
Low46 °F (May 14, 4:30 AM)12% (May 16, 4:30 PM)29.89 "Hg (May 25, 3:30 PM)
Average66 °F47%30.09 "Hg
* Reported May 12 10:30 AM — May 27 10:30 AM, Uluru, Weather by CustomWeather, © 2016

Note: Actual official high and low records may vary slightly from our data, if they occured in-between our weather recording intervals... More about our weather records

Advertising

Uluru Weather History for the Previous 24 Hours

Scroll right to see more
 ConditionsComfort  
Time TempWeatherWind HumidityBarometerVisibility
10:30 AM
Fri, May 27
63 °FSunny.3 mph42%30.18 "HgN/A
9:30 AM61 °FSunny.12 mph45%30.21 "HgN/A
8:30 AM57 °FSunny.7 mph51%30.18 "HgN/A
7:30 AM52 °FSunny.3 mph62%30.15 "HgN/A
6:30 AM52 °FClear.No wind62%30.15 "HgN/A
5:30 AM54 °FClear.5 mph54%30.12 "HgN/A
4:30 AM57 °FClear.7 mph51%30.12 "HgN/A
3:30 AM59 °FPassing clouds.8 mph55%30.09 "HgN/A
2:30 AM61 °FClear.12 mph59%30.09 "HgN/A
1:30 AM63 °FClear.10 mph59%30.07 "HgN/A
12:30 AM64 °FClear.12 mph64%30.07 "HgN/A
11:30 PM
Thu, May 26
68 °FClear.9 mph64%30.04 "HgN/A
10:30 PM68 °FClear.7 mph64%30.04 "HgN/A
9:30 PM72 °FClear.12 mph57%30.01 "HgN/A
8:30 PM75 °FClear.9 mph50%30.01 "HgN/A
7:30 PM77 °FClear.9 mph44%29.98 "HgN/A
6:30 PM81 °FClear.9 mph39%29.95 "HgN/A
5:30 PM84 °FScattered clouds.13 mph35%29.92 "HgN/A
4:30 PM86 °FScattered clouds.10 mph33%29.92 "HgN/A
3:30 PM86 °FScattered clouds.13 mph33%29.92 "HgN/A
2:30 PM86 °FScattered clouds.13 mph33%29.92 "HgN/A
1:30 PM84 °FSunny.12 mph35%29.95 "HgN/A
12:30 PM82 °FSunny.12 mph37%29.95 "HgN/A
Weather by CustomWeather, © 2016

See weather overviewHow to use our weather pages